Location: Sommers-Bausch Observatory
(40.0037°N, 105.2635°W)
Time: 07:28:56
(UTC-06:00)

Amateur Radio Satellites - All Passes

Search period start: 16 August 2017 06:58
Search period end: 17 August 2017 06:58
Location: Sommers-Bausch Observatory, 40.0037°N, 105.2635°W

Satellite Date Start Highest point End Downlink Frequencies (MHz)
Time Altitude Azimuth
STRAND 1 16 Aug 07:12:41 07:17:36 49° 71° (ENE) 07:22:32 437.568
DOVE 4 16 Aug 07:14:47 07:19:00 33° 291° (WNW) 07:22:59 437.250
KAITUO 1B 16 Aug 07:16:23 07:20:12 73° 102° (ESE) 07:23:58 145.475/437.950
LilacSat-2 16 Aug 07:18:18 07:22:09 73° 284° (WNW) 07:26:00 437.200
HO-68 16 Aug 07:29:00 07:35:11 31° 96° (E) 07:41:19 435.675
XW-2D 16 Aug 07:29:31 07:33:15 53° 285° (WNW) 07:37:00 145.860 - 145.880
SEEDS 16 Aug 07:32:44 07:35:11 15° 92° (E) 07:37:38 437.485
AO-85 16 Aug 07:37:24 07:41:12 47° 305° (NW) 07:45:01 145.980
XW-2B 16 Aug 07:40:30 07:44:07 40° 287° (WNW) 07:47:43 145.730 - 145.750
BEESAT 3 16 Aug 07:49:16 07:52:39 26° 311° (NW) 07:56:06 437.485
BEESAT 2 16 Aug 07:49:36 07:53:35 73° 303° (WNW) 07:57:38 435.950
NUDT-PHONESAT 16 Aug 07:57:47 08:01:09 33° 288° (WNW) 08:04:32 437.300
XW-2C 16 Aug 07:59:41 08:02:47 24° 290° (WNW) 08:05:55 145.795 - 145.815
FO-29 16 Aug 08:00:50 08:05:57 20° 60° (ENE) 08:10:49 435.910
CUTE 1.7 + AOD 2 16 Aug 08:08:31 08:12:48 63° 101° (E) 08:17:02 437.475
XW-2F 16 Aug 08:16:55 08:19:23 17° 293° (WNW) 08:21:52 145.980 - 146.000
ZACube-1 16 Aug 08:21:20 08:23:23 13° 91° (E) 08:25:28 437.345
AAUSAT CUBESAT 2 16 Aug 08:33:32 08:37:19 32° 97° (E) 08:41:03 437.432
PCSat 16 Aug 08:36:30 08:41:24 32° 52° (NE) 08:46:14 145.827
CUTE-I 16 Aug 08:37:05 08:41:17 24° 295° (WNW) 08:45:28 437.470
AO-73 16 Aug 08:44:47 08:48:06 22° 95° (E) 08:51:28 145.935
XW-2A 16 Aug 08:50:11 08:53:33 68° 283° (WNW) 08:56:54 145.665 - 145.685
STRAND 1 16 Aug 08:53:28 08:57:01 19° 267° (W) 09:00:36 437.568
SO-50 16 Aug 08:58:22 09:02:31 34° 50° (NE) 09:06:42 436.795
CUBEBUG 2 16 Aug 08:59:50 09:03:58 66° 285° (WNW) 09:08:10 437.445
UWE-3 16 Aug 09:03:48 09:08:00 78° 101° (E) 09:12:17 435.000/436.395/437.385
SEEDS 16 Aug 09:07:01 09:11:04 44° 287° (WNW) 09:15:06 437.485
HO-68 16 Aug 09:16:15 09:23:05 50° 293° (WNW) 09:29:54 435.675
UNISAT 6 16 Aug 09:22:19 09:25:56 26° 69° (ENE) 09:29:31 437.425
PRISM 16 Aug 09:30:18 09:33:32 22° 68° (ENE) 09:36:47 437.425
Oscar 11 16 Aug 09:35:37 09:39:57 61° 101° (E) 09:44:14 .
O/OREOS (USA 219) 16 Aug 09:38:10 09:39:09 11° 97° (E) 09:40:07 437.305
FO-29 16 Aug 09:42:23 09:50:12 86° 255° (WSW) 09:57:28 435.910
CUTE 1.7 + AOD 2 16 Aug 09:46:29 09:48:04 12° 297° (WNW) 09:49:39 437.475
Max Valier Satellite 16 Aug 09:48:48 09:50:33 13° 92° (E) 09:52:18 145.860
ZACube-1 16 Aug 09:55:49 09:59:55 49° 286° (WNW) 10:04:05 437.345
TIGRISAT 16 Aug 09:58:11 10:02:30 58° 74° (ENE) 10:06:44 435.000
RS-15 16 Aug 10:00:20 10:04:15 12° 93° (E) 10:08:10 29.354- 29.394
NO-84 16 Aug 10:07:47 10:10:50 42° 39° (NE) 10:14:07 435.350 FM
AAUSAT CUBESAT 2 16 Aug 10:09:27 10:12:32 20° 292° (WNW) 10:15:37 437.432
PCSat 16 Aug 10:19:52 10:24:46 36° 250° (WSW) 10:29:40 145.827
AO-73 16 Aug 10:20:38 10:24:19 30° 290° (WNW) 10:28:05 145.935
DELFI C3 16 Aug 10:27:38 10:31:34 56° 99° (E) 10:35:28 145.870
Tancredo 1 16 Aug 10:33:02 10:35:15 20° 133° (SE) 10:37:29 437.200
SO-50 16 Aug 10:39:00 10:42:51 27° 247° (WSW) 10:46:44 436.795
EO-88 16 Aug 10:53:00 10:56:40 69° 101° (E) 11:00:19 145.990 - 145.960
M-CUBED/EXP-1 PRIME 16 Aug 10:56:54 11:01:08 52° 68° (ENE) 11:05:36 437.505
AIST 2D 16 Aug 10:57:37 11:00:36 28° 72° (ENE) 11:03:36 435.315
UNISAT 6 16 Aug 10:58:49 11:02:33 27° 264° (W) 11:06:15 437.425
POLYITAN 1 16 Aug 11:03:02 11:05:43 17° 66° (ENE) 11:08:24 437.675
NANOSAT C BR1 16 Aug 11:03:43 11:06:09 15° 65° (ENE) 11:08:35 145.865
PRISM 16 Aug 11:05:00 11:08:38 29° 263° (W) 11:12:17 437.425
LO-87 16 Aug 11:08:53 11:10:01 11° 92° (E) 11:11:08 145.935 - 145.965
O/OREOS (USA 219) 16 Aug 11:13:28 11:17:54 66° 293° (WNW) 11:22:22 437.305
Oscar 11 16 Aug 11:13:43 11:15:32 12° 297° (WNW) 11:17:21 .
QB50P2 16 Aug 11:16:51 11:20:21 26° 69° (ENE) 11:23:51 145.880/145.840
EO-79 16 Aug 11:19:33 11:22:59 25° 69° (ENE) 11:26:27 145.935-145.965
Max Valier Satellite 16 Aug 11:21:06 11:24:32 37° 287° (WNW) 11:27:57 145.860
ESTCUBE 1 16 Aug 11:25:17 11:27:46 14° 91° (E) 11:30:14 437.505/2401.250
FO-29 16 Aug 11:31:36 11:35:53 16° 271° (W) 11:40:03 435.910
TIGRISAT 16 Aug 11:37:59 11:39:31 12° 269° (W) 11:41:02 435.000
NO-84 16 Aug 11:45:47 11:48:03 17° 232° (SW) 11:50:26 435.350 FM
ISS 16 Aug 11:49:07 11:52:08 35° 136° (SE) 11:55:10 437.550
DUCHIFAT 1 16 Aug 11:55:19 11:59:22 49° 73° (ENE) 12:03:25 145.980
RS-15 16 Aug 12:02:11 12:14:04 63° 113° (ESE) 12:26:08 29.354- 29.394
nSIGHT-1 16 Aug 12:03:55 12:07:06 54° 139° (SE) 12:10:19 .
DELFI C3 16 Aug 12:04:30 12:05:50 11° 296° (WNW) 12:07:09 145.870
Tancredo 1 16 Aug 12:07:37 12:10:20 35° 329° (NNW) 12:13:05 437.200
BUGSAT 1 16 Aug 12:17:18 12:20:36 24° 69° (ENE) 12:23:53 437.445
Oscar 19 16 Aug 12:19:52 12:22:40 15° 61° (ENE) 12:25:29 437.125/150
AIST 2D 16 Aug 12:31:45 12:33:50 15° 267° (W) 12:35:55 435.315
M-CUBED/EXP-1 PRIME 16 Aug 12:33:15 12:35:50 15° 265° (W) 12:38:30 437.505
POLYITAN 1 16 Aug 12:37:11 12:41:09 40° 261° (W) 12:45:09 437.675
NANOSAT C BR1 16 Aug 12:37:26 12:41:28 45° 261° (W) 12:45:30 145.865
LO-87 16 Aug 12:40:18 12:43:38 38° 286° (WNW) 12:46:55 145.935 - 145.965
SPROUT 16 Aug 12:41:45 12:45:09 23° 95° (E) 12:48:32 437.525
Gurwin Techsat 1B 16 Aug 12:50:40 12:54:23 20° 63° (ENE) 12:58:06 435.225
QB50P2 16 Aug 12:52:33 12:56:03 25° 264° (W) 12:59:34 145.880/145.840
EO-79 16 Aug 12:55:07 12:58:39 26° 264° (W) 13:02:12 145.935-145.965
ESTCUBE 1 16 Aug 13:00:26 13:04:51 52° 287° (WNW) 13:09:15 437.505/2401.250
AO-7 16 Aug 13:17:10 13:20:43 13° 45° (NE) 13:24:18 .
ISS 16 Aug 13:25:44 13:28:38 28° 332° (NNW) 13:31:33 437.550
VELOX 1 16 Aug 13:29:47 13:34:12 65° 102° (ESE) 13:38:33 145.980
DUCHIFAT 1 16 Aug 13:33:24 13:35:18 13° 269° (W) 13:37:11 145.980
UKube-1 16 Aug 13:38:52 13:41:10 14° 92° (E) 13:43:27 .
nSIGHT-1 16 Aug 13:41:02 13:43:41 22° 336° (NNW) 13:46:20 .
Tancredo 1 16 Aug 13:45:28 13:46:15 11° 348° (NNW) 13:47:03 437.200
DX 1 16 Aug 13:48:32 13:52:19 28° 97° (E) 13:56:04 434.975-435.025
BUGSAT 1 16 Aug 13:52:21 13:55:50 26° 264° (W) 13:59:18 437.445
Oscar 19 16 Aug 13:56:15 14:01:22 70° 258° (WSW) 14:06:31 437.125/150
RS-15 16 Aug 14:15:34 14:27:10 45° 317° (NW) 14:38:51 29.354- 29.394
SPROUT 16 Aug 14:17:23 14:21:01 28° 291° (WNW) 14:24:38 437.525
50 SAT 16 Aug 14:18:58 14:22:22 74° 284° (WNW) 14:25:43 437.505
Gurwin Techsat 1B 16 Aug 14:28:41 14:33:52 55° 260° (W) 14:39:06 435.225
AO-85 16 Aug 14:29:16 14:31:35 14° 43° (NE) 14:33:57 145.980
BEESAT 3 16 Aug 14:29:17 14:31:52 16° 44° (NE) 14:34:25 437.485
AO-7 16 Aug 15:03:36 15:11:45 60° 66° (ENE) 15:19:56 .
ISS 16 Aug 15:04:41 15:05:57 12° 352° (N) 15:07:14 437.550
ITAMSAT 1 16 Aug 15:05:05 15:09:52 38° 69° (ENE) 15:14:38 435.822/435.867
VELOX 1 16 Aug 15:08:16 15:10:04 12° 298° (WNW) 15:11:50 145.980
UKube-1 16 Aug 15:13:17 15:17:26 48° 288° (WNW) 15:21:34 .
nSIGHT-1 16 Aug 15:20:02 15:21:01 11° 356° (N) 15:21:59 .
BEESAT 16 Aug 15:22:33 15:26:11 21° 94° (E) 15:29:49 436.000
DX 1 16 Aug 15:24:49 15:28:22 25° 292° (WNW) 15:31:53 434.975-435.025
YUBILEINY 16 Aug 15:26:04 15:32:23 23° 80° (E) 15:38:40 435.215
MOZHAYETS 4 16 Aug 15:50:22 15:54:36 35° 97° (E) 15:58:49
ITUPSAT 1 16 Aug 15:52:45 15:57:18 43° 99° (E) 16:01:49 437.325
BEESAT 3 16 Aug 16:05:51 16:09:44 51° 243° (WSW) 16:13:31 437.485
BEESAT 2 16 Aug 16:07:47 16:11:46 51° 55° (NE) 16:15:40 435.950
AO-85 16 Aug 16:08:05 16:12:24 77° 241° (WSW) 16:17:03 145.980
RS-15 16 Aug 16:35:15 16:44:07 22° 349° (N) 16:52:54 29.354- 29.394
DOVE 4 16 Aug 16:41:21 16:45:37 25° 67° (ENE) 16:49:52 437.250
ISS 16 Aug 16:41:50 16:43:33 13° 13° (NNE) 16:45:16 437.550
ITAMSAT 1 16 Aug 16:45:06 16:49:22 25° 265° (W) 16:53:40 435.822/435.867
Tancredo 1 16 Aug 16:56:06 16:58:37 26° 28° (NNE) 17:01:07 437.200
nSIGHT-1 16 Aug 16:56:29 16:58:29 15° 17° (NNE) 17:00:30 .
AO-7 16 Aug 16:57:47 17:04:52 30° 264° (W) 17:12:01 .
BEESAT 16 Aug 16:59:40 17:04:03 38° 290° (WNW) 17:08:26 436.000
XW-2C 16 Aug 17:08:45 17:09:19 10° 64° (ENE) 17:09:52 145.795 - 145.815
YUBILEINY 16 Aug 17:19:25 17:28:13 74° 279° (W) 17:37:01 435.215
XW-2F 16 Aug 17:23:21 17:25:30 15° 67° (ENE) 17:27:39 145.980 - 146.000
MOZHAYETS 4 16 Aug 17:27:58 17:31:31 23° 293° (WNW) 17:35:06
ITUPSAT 1 16 Aug 17:31:21 17:34:48 20° 295° (WNW) 17:38:15 437.325
STARS 16 Aug 17:31:54 17:34:16 14° 92° (E) 17:36:36 437.465
CUBESAT XI-V 16 Aug 17:33:35 17:38:21 88° 103° (ESE) 17:43:03 437.345
BEESAT 2 16 Aug 17:47:02 17:49:03 13° 251° (WSW) 17:51:02 435.950
KAITUO 1B 16 Aug 17:55:48 17:59:00 28° 71° (ENE) 18:02:14 145.475/437.950
HO-68 16 Aug 17:58:05 18:03:20 23° 58° (ENE) 18:08:36 435.675
LilacSat-2 16 Aug 17:59:13 18:02:49 46° 74° (ENE) 18:06:27 437.200
XW-2D 16 Aug 18:09:36 18:13:16 61° 76° (ENE) 18:16:59 145.860 - 145.880
KKS-1 16 Aug 18:14:03 18:18:29 76° 286° (WNW) 18:22:54 437.445
CUTE-I 16 Aug 18:17:26 18:22:44 66° 73° (ENE) 18:28:04 437.470
ISS 16 Aug 18:17:32 18:20:42 44° 32° (NNE) 18:23:49 437.550
DOVE 4 16 Aug 18:18:03 18:23:01 41° 262° (W) 18:28:00 437.250
XW-2B 16 Aug 18:20:25 18:24:09 82° 79° (E) 18:27:56 145.730 - 145.750
Tancredo 1 16 Aug 18:31:16 18:33:51 29° 225° (SW) 18:36:26 437.200
nSIGHT-1 16 Aug 18:32:09 18:35:23 63° 35° (NE) 18:38:34 .
NUDT-PHONESAT 16 Aug 18:35:32 18:39:11 87° 259° (W) 18:42:52 437.300
XW-2C 16 Aug 18:39:20 18:42:59 54° 260° (W) 18:46:42 145.795 - 145.815
RS-15 16 Aug 18:52:36 19:02:32 27° 25° (NNE) 19:12:06 29.354- 29.394
XW-2F 16 Aug 18:55:53 18:59:18 35° 262° (W) 19:02:46 145.980 - 146.000
CUTE 1.7 + AOD 2 16 Aug 19:00:18 19:04:13 39° 72° (ENE) 19:08:10 437.475
STARS 16 Aug 19:06:39 19:10:52 48° 287° (WNW) 19:15:02 437.465
CUBESAT XI-V 16 Aug 19:14:29 19:14:57 10° 300° (WNW) 19:15:25 437.345
XW-2A 16 Aug 19:20:43 19:23:40 30° 72° (ENE) 19:26:38 145.665 - 145.685
YUBILEINY 16 Aug 19:22:22 19:26:41 14° 301° (WNW) 19:31:02 435.215
AAUSAT CUBESAT 2 16 Aug 19:23:20 19:26:23 20° 68° (ENE) 19:29:26 437.432
STRAND 1 16 Aug 19:24:51 19:28:11 17° 92° (E) 19:31:32 437.568
KAITUO 1B 16 Aug 19:30:33 19:33:01 17° 266° (W) 19:35:30 145.475/437.950
LilacSat-2 16 Aug 19:36:17 19:37:21 11° 269° (W) 19:38:25 437.200
AO-73 16 Aug 19:40:29 19:43:00 16° 66° (ENE) 19:45:31 145.935
HO-68 16 Aug 19:43:13 19:50:22 72° 256° (WSW) 19:57:32 435.675
O/OREOS (USA 219) 16 Aug 19:45:28 19:48:56 21° 58° (ENE) 19:52:24 437.305
ISS 16 Aug 19:54:32 19:56:57 19° 228° (SW) 19:59:21 437.550
CUBEBUG 2 16 Aug 19:56:45 20:01:08 90° 297° (WNW) 20:05:24 437.445
SEEDS 16 Aug 19:57:16 20:01:26 73° 258° (WSW) 20:05:40 437.485
UWE-3 16 Aug 19:59:53 20:04:02 55° 74° (ENE) 20:08:08 435.000/436.395/437.385
CUTE-I 16 Aug 20:00:14 20:03:13 15° 269° (W) 20:06:13 437.470
nSIGHT-1 16 Aug 20:09:51 20:11:23 13° 231° (SW) 20:12:55 .
Oscar 11 16 Aug 20:29:32 20:33:34 41° 72° (ENE) 20:37:38 .
CUTE 1.7 + AOD 2 16 Aug 20:37:30 20:40:12 16° 268° (W) 20:42:55 437.475
ZACube-1 16 Aug 20:50:31 20:54:42 72° 259° (WSW) 20:58:50 437.345
XW-2A 16 Aug 20:54:59 20:56:30 12° 267° (W) 20:57:59 145.665 - 145.685
AAUSAT CUBESAT 2 16 Aug 20:57:53 21:01:37 32° 264° (W) 21:05:23 437.432
STRAND 1 16 Aug 21:02:43 21:07:40 53° 288° (WNW) 21:12:36 437.568
RS-15 16 Aug 21:05:37 21:17:44 71° 54° (NE) 21:29:09 29.354- 29.394
DELFI C3 16 Aug 21:12:17 21:15:43 28° 70° (ENE) 21:19:10 145.870
AO-73 16 Aug 21:14:58 21:18:54 41° 261° (W) 21:22:50 145.935
O/OREOS (USA 219) 16 Aug 21:24:16 21:28:28 38° 255° (WSW) 21:32:41 437.305
EO-88 16 Aug 21:30:16 21:33:17 25° 70° (ENE) 21:36:19 145.990 - 145.960
HO-68 16 Aug 21:37:56 21:39:12 10° 273° (W) 21:40:28 435.675
UWE-3 16 Aug 21:39:18 21:40:47 12° 269° (W) 21:42:16 435.000/436.395/437.385
TIGRISAT 16 Aug 21:52:01 21:53:44 12° 91° (E) 21:55:26 435.000
Max Valier Satellite 16 Aug 21:58:36 22:02:14 80° 77° (ENE) 22:05:54 145.860
Oscar 11 16 Aug 22:07:13 22:09:53 16° 268° (W) 22:12:33 .
ESTCUBE 1 16 Aug 22:24:53 22:26:59 13° 63° (ENE) 22:29:05 437.505/2401.250
FO-29 16 Aug 22:39:05 22:44:53 89° 286° (WNW) 22:50:10 435.910
PRISM 16 Aug 22:46:23 22:50:14 37° 98° (E) 22:54:02 437.425
DELFI C3 16 Aug 22:47:28 22:50:28 20° 266° (W) 22:53:30 145.870
UNISAT 6 16 Aug 22:49:58 22:54:14 62° 101° (ESE) 22:58:32 437.425
EO-88 16 Aug 23:04:19 23:06:55 18° 266° (W) 23:09:31 145.990 - 145.960
LO-87 16 Aug 23:14:56 23:18:31 67° 76° (ENE) 23:22:05 145.935 - 145.965
SO-50 16 Aug 23:15:02 23:16:22 11° 107° (ESE) 23:17:41 436.795
PCSat 16 Aug 23:17:40 23:22:24 32° 109° (ESE) 23:27:10 145.827
RS-15 16 Aug 23:19:14 23:29:08 33° 256° (WSW) 23:38:39 29.354- 29.394
TIGRISAT 16 Aug 23:26:32 23:30:44 55° 286° (WNW) 23:34:57 435.000
SPROUT 16 Aug 23:34:56 23:37:44 17° 66° (ENE) 23:40:33 437.525
AIST 2D 16 Aug 23:55:43 23:59:03 37° 98° (E) 00:02:22 435.315
ESTCUBE 1 16 Aug 23:58:46 00:03:13 62° 259° (W) 00:07:43 437.505/2401.250
M-CUBED/EXP-1 PRIME 17 Aug 00:10:37 00:14:51 41° 103° (ESE) 00:18:48 437.505
NANOSAT C BR1 17 Aug 00:22:22 00:25:58 28° 96° (E) 00:29:34 145.865
PRISM 17 Aug 00:22:26 00:25:13 18° 294° (WNW) 00:27:58 437.425
POLYITAN 1 17 Aug 00:22:27 00:26:13 31° 97° (E) 00:29:57 437.675
VELOX 1 17 Aug 00:25:55 00:30:15 52° 73° (ENE) 00:34:36 145.980
FO-29 17 Aug 00:26:52 00:28:55 12° 305° (NW) 00:30:54 435.910
UNISAT 6 17 Aug 00:28:48 00:30:25 12° 297° (WNW) 00:32:03 437.425
UKube-1 17 Aug 00:33:33 00:35:16 12° 62° (ENE) 00:36:59 .
QB50P2 17 Aug 00:37:01 00:41:07 51° 99° (E) 00:45:14 145.880/145.840
EO-79 17 Aug 00:39:26 00:43:31 49° 100° (E) 00:47:35 145.935-145.965
DX 1 17 Aug 00:43:30 00:47:00 24° 67° (ENE) 00:50:30 434.975-435.025
50 SAT 17 Aug 00:49:16 00:52:18 30° 72° (ENE) 00:55:21 437.505
SO-50 17 Aug 00:51:40 00:56:11 74° 303° (WNW) 01:00:42 436.795
PCSat 17 Aug 01:00:43 01:05:42 36° 307° (NW) 01:10:42 145.827
SPROUT 17 Aug 01:09:17 01:13:18 40° 262° (W) 01:17:20 437.525
DUCHIFAT 1 17 Aug 01:15:05 01:19:16 79° 283° (WNW) 01:23:26 145.980
AIST 2D 17 Aug 01:30:18 01:31:53 13° 293° (WNW) 01:33:28 435.315
BUGSAT 1 17 Aug 01:33:52 01:37:41 41° 99° (E) 01:41:30 437.445
M-CUBED/EXP-1 PRIME 17 Aug 01:45:42 01:48:53 19° 300° (WNW) 01:51:56 437.505
NANOSAT C BR1 17 Aug 01:58:13 02:01:32 23° 292° (WNW) 02:04:51 145.865
POLYITAN 1 17 Aug 01:58:38 02:01:48 21° 292° (WNW) 02:04:57 437.675
VELOX 1 17 Aug 02:04:40 02:06:59 14° 268° (W) 02:09:18 145.980
UKube-1 17 Aug 02:06:27 02:10:44 64° 259° (WSW) 02:15:03 .
Oscar 19 17 Aug 02:08:30 02:13:28 43° 99° (E) 02:18:23 437.125/150
QB50P2 17 Aug 02:14:22 02:16:28 14° 296° (WNW) 02:18:34 145.880/145.840
EO-79 17 Aug 02:16:39 02:18:51 14° 296° (WNW) 02:21:03 145.935-145.965
DX 1 17 Aug 02:19:09 02:23:00 30° 263° (W) 02:26:54 434.975-435.025
50 SAT 17 Aug 02:23:18 02:25:03 13° 267° (W) 02:26:49 437.505
BEESAT 17 Aug 02:28:19 02:32:05 24° 66° (ENE) 02:35:53 436.000
SO-50 17 Aug 02:35:55 02:37:26 11° 322° (NW) 02:38:57 436.795
Gurwin Techsat 1B 17 Aug 02:45:22 02:50:39 63° 101° (ESE) 02:55:54 435.225
MOZHAYETS 4 17 Aug 02:51:36 02:55:35 31° 69° (ENE) 02:59:35
ITUPSAT 1 17 Aug 02:58:39 03:03:11 47° 72° (ENE) 03:07:45 437.325
NO-84 17 Aug 03:01:15 03:04:07 70° 134° (SE) 03:06:56 435.350 FM
AO-7 17 Aug 03:07:44 03:13:02 18° 91° (E) 03:18:17 .
BUGSAT 1 17 Aug 03:10:26 03:12:42 15° 295° (WNW) 03:14:57 437.445
ITAMSAT 1 17 Aug 03:20:10 03:22:36 13° 91° (E) 03:25:02 435.822/435.867
YUBILEINY 17 Aug 03:30:33 03:39:05 55° 77° (ENE) 03:47:31 435.215
Oscar 19 17 Aug 03:48:26 03:52:29 23° 295° (WNW) 03:56:31 437.125/150
BEESAT 17 Aug 04:05:20 04:09:40 35° 262° (W) 04:14:01 436.000
Gurwin Techsat 1B 17 Aug 04:26:42 04:30:04 17° 298° (WNW) 04:33:25 435.225
STARS 17 Aug 04:28:30 04:30:32 13° 63° (ENE) 04:32:33 437.465
MOZHAYETS 4 17 Aug 04:29:03 04:32:44 24° 265° (W) 04:36:26
CUBESAT XI-V 17 Aug 04:35:47 04:40:25 79° 76° (ENE) 04:45:06 437.345
ITUPSAT 1 17 Aug 04:38:06 04:41:15 17° 267° (W) 04:44:24 437.325
NO-84 17 Aug 04:40:30 04:41:49 12° 333° (NNW) 04:43:08 435.350 FM
ITAMSAT 1 17 Aug 04:57:23 05:02:33 70° 286° (WNW) 05:07:40 435.822/435.867
AO-7 17 Aug 04:58:20 05:06:44 88° 288° (WNW) 05:15:02 .
KKS-1 17 Aug 05:10:55 05:15:24 90° 64° (ENE) 05:19:54 437.445
YUBILEINY 17 Aug 05:28:06 05:35:23 31° 276° (W) 05:42:39 435.215
BEESAT 3 17 Aug 05:54:46 05:58:11 28° 114° (ESE) 06:01:40 437.485
STARS 17 Aug 06:01:59 06:06:20 61° 258° (WSW) 06:10:43 437.465
XW-2C 17 Aug 06:13:23 06:15:45 16° 93° (E) 06:18:06 145.795 - 145.815
DOVE 4 17 Aug 06:17:51 06:22:29 61° 100° (E) 06:26:48 437.250
AO-85 17 Aug 06:22:28 06:26:07 36° 116° (ESE) 06:29:42 145.980
XW-2F 17 Aug 06:28:36 06:31:39 22° 95° (E) 06:34:42 145.980 - 146.000
CUTE-I 17 Aug 06:35:38 06:40:08 27° 95° (E) 06:44:36 437.470
STRAND 1 17 Aug 06:39:54 06:43:58 25° 66° (ENE) 06:48:03 437.568
